Tracking 18980 objects as of 22-Feb-2018
HD Live streaming from Space Station
objects crossing your sky now

COSMOS 469

Track COSMOS 469 now!
10-day predictions
COSMOS 469 is classified as:


NORAD ID: 5721
Int'l Code: 1971-117A
Perigee: 939.4 km
Apogee: 1,031.0 km
Inclination: 64.5 °
Period: 104.6 minutes
Semi major axis: 7356 km
RCS: 2.893 m2 (large)
Launch date: December 25, 1971
Source: Commonwealth of Independent States (former USSR) (CIS)
Launch site: TYURATAM MISSILE AND SPACE COMPLEX (TTMTR)
aabbcc
Your satellite tracking list
Your tracking list is empty




NASA's NSSDC Master Catalog

Two Line Element Set (TLE):
1 05721U 71117A   18052.24468576 -.00000077  00000-0  13982-4 0  9992
2 05721  64.4897 339.1424 0062220 241.8025 117.6734 13.76018347319366
Source of the keplerian elements: AFSPC